This is the latest recevied weather packets stored in our database for station/object R2AKT-13. If no packets are shown the sender has not sent any weather packets the latest 10 day(s).
| Time | Temp. | Humidity | Pressure | Rain* | Wind** | Luminosity | Snow |
|---|---|---|---|---|---|---|---|
| 1777779634 | 10° C | 62% | 990 hPa | - | 1.34 m/s, 213° | - | - |
| 1777779084 | 10.56° C | 61% | 990 hPa | - | 1.79 m/s, 192° | - | - |
| 1777778579 | 10° C | 62% | 989.9 hPa | - | 1.34 m/s, 199° | - | - |
| 1777778039 | 10° C | 63% | 989.9 hPa | - | 1.79 m/s, 181° | - | - |
| 1777777459 | 9.44° C | 63% | 990 hPa | - | 1.79 m/s, 200° | - | - |
| 1777776924 | 9.44° C | 63% | 990 hPa | - | 1.79 m/s, 191° | - | - |
| 1777776419 | 9.44° C | 63% | 989.9 hPa | - | 1.79 m/s, 197° | - | - |
| 1777775884 | 9.44° C | 63% | 990 hPa | - | 1.79 m/s, 179° | - | - |
| 1777775348 | 9.44° C | 63% | 990 hPa | - | 1.34 m/s, 193° | - | - |
| 1777774829 | 9.44° C | 62% | 990 hPa | - | 1.34 m/s, 180° | - | - |
| 1777774304 | 9.44° C | 63% | 990 hPa | - | 1.79 m/s, 190° | - | - |
| 1777773825 | 9.44° C | 63% | 990 hPa | - | 2.24 m/s, 194° | - | - |
| 1777773279 | 9.44° C | 62% | 990 hPa | - | 1.79 m/s, 184° | - | - |
| 1777772734 | 9.44° C | 62% | 990.1 hPa | - | 1.79 m/s, 176° | - | - |
| 1777772204 | 9.44° C | 61% | 990 hPa | - | 1.79 m/s, 186° | - | - |
| 1777771618 | 9.44° C | 61% | 990.1 hPa | - | 2.24 m/s, 187° | - | - |
| 1777771079 | 10° C | 60% | 990.2 hPa | - | 2.24 m/s, 180° | - | - |
| 1777770584 | 10° C | 60% | 990.3 hPa | - | 2.68 m/s, 182° | - | - |
| 1777769984 | 10° C | 59% | 990.3 hPa | - | 2.24 m/s, 179° | - | - |
| 1777769428 | 10° C | 59% | 990.4 hPa | - | 1.79 m/s, 180° | - | - |
| 1777768864 | 10° C | 58% | 990.5 hPa | - | 1.79 m/s, 182° | - | - |
| 1777768279 | 10° C | 58% | 990.5 hPa | - | 1.34 m/s, 184° | - | - |
| 1777767729 | 10.56° C | 57% | 990.5 hPa | - | 1.34 m/s, 198° | - | - |
| 1777767184 | 10.56° C | 56% | 990.6 hPa | - | 1.34 m/s, 200° | - | - |
| 1777766584 | 10.56° C | 56% | 990.6 hPa | - | 1.34 m/s, 186° | - | - |
* Rain since midnight (hover to see other rain measurements)
** Current wind speed in m/s (hover to see current wind gust speed)